Location: Bathurst
(33.4193°S, 149.5775°E)
Time: 03:12:19
(UTC+10:00)

Tianhe-1 - Visible Passes

Search period start: 16 May 2021 00:00
Search period end: 26 May 2021 00:00
Orbit: 359 x 385 km, 41.5° (Epoch: 14 May)

Date Brightness Start Highest point End Pass type
(mag) Time Alt. Az. Time Alt. Az. Time Alt. Az.
18 May 2.8 05:57:40 10° NNW 06:00:31 33° NE 06:03:22 10° E visible
19 May 3.8 04:55:56 13° NNE 04:57:03 16° NE 04:59:02 10° ENE visible
20 May 1.5 05:28:18 27° NW 05:29:44 58° NNE 05:32:49 10° ESE visible
21 May 4.4 04:28:22 13° E 04:28:22 13° E 04:28:54 10° E visible
21 May 1.5 06:00:22 15° W 06:02:40 42° SSW 06:05:41 10° SE visible
22 May 2.6 05:00:14 33° ESE 05:00:14 33° ESE 05:02:07 10° ESE visible
23 May 2.1 05:31:56 31° SSW 05:31:59 31° SSW 05:34:51 10° SE visible
24 May 2.8 06:03:30 14° SW 06:05:13 20° S 06:07:37 10° SE visible
25 May 3.5 05:03:00 16° SSE 05:03:00 16° SSE 05:04:00 10° SE visible
